Regional Weather Roundup
Issued by NWS Little Rock, AR

Home | Current Version | Previous Version | Text Only | Print | Product List | Glossary On
Versions: 1 2 3 4 5 6 7 8 9 10 11 12 13 14 15 16 17 18 19 20 21 22 23 24 25 26 27 28 29 30 31 32 33 34 35 36 37 38 39 40 41 42 43 44 45 46 47 48
000
ASUS44 KLZK 281605
RWRLZK

WEATHER ROUNDUP FOR ARKANSAS
NATIONAL WEATHER SERVICE LITTLE ROCK AR
1000 AM CST SAT FEB 28 2015

NOTE: "FAIR" INDICATES FEW OR NO CLOUDS BELOW 12,000 FEET WITH NO
SIGNIFICANT WEATHER AND/OR OBSTRUCTIONS TO VISIBILITY.

ARZ001-003-010-029-281700-
NORTHWEST ARKANSAS

CITY           SKY/WX    TMP DP  RH WIND       PRES   REMARKS
FAYETTEVILLE   LGT SNOW  23  21  92 CALM      30.45S VSB 1
FORT SMITH     LGT SNOW  25  19  78 E10       30.51S WCI  15
HARRISON       LGT SNOW  20  16  84 SE13      30.48S FOG     WCI   7
BENTONVILLE    CLOUDY    23  18  80 SE8       30.45S VSB 1   WCI  14
ROGERS         LGT SNOW  21  18  88 E7        30.45S VSB 1   WCI  12
SILOAM SPGS    CLOUDY    23  16  74 E7        30.46S VSB 3/4 WCI  15
HIGHFILL       LGT SNOW  22  19  89 E7        30.44S VSB 3/4 WCI  13
SPRINGDALE     SNOW      21  19  93 E8        30.46S VSB 1/2 WCI  12
$$

ARZ004-005-016-281700-
NORTH CENTRAL ARKANSAS

CITY           SKY/WX    TMP DP  RH WIND       PRES   REMARKS
BATESVILLE     CLOUDY    25  18  74 E10       30.58S WCI  15
FLIPPIN        MOSUNNY   21  16  79 E7        30.53F WCI  13
MTN HOME       LGT SNOW  21  17  84 E9        30.51F FOG     WCI  11
$$

ARZ040-041-281700-
WEST CENTRAL ARKANSAS

CITY           SKY/WX    TMP DP  RH WIND       PRES   REMARKS
MENA           CLOUDY    28  23  80 E7        30.45S WCI  21
MOUNT IDA      CLOUDY    28  18  66 SE5       30.46R WCI  23
$$

ARZ009-017-025-026-028-281700-
NORTHEAST ARKANSAS

CITY           SKY/WX    TMP DP  RH WIND       PRES   REMARKS
CORNING        LGT RAIN  25  19  80 NE10      30.62S WCI  15
JONESBORO      CLOUDY    24  20  84 NE10      30.59F WCI  14
NEWPORT        CLOUDY    26  19  74 NE13      30.60S WCI  15
WALNUT RIDGE   MOSUNNY   23  18  80 NE14      30.61F WCI  11
BLYTHEVILLE    CLOUDY    27  18  69 E9        30.60F WCI  18
$$

ARZ022-023-033-042-044-281700-
CENTRAL ARKANSAS

CITY           SKY/WX    TMP DP  RH WIND       PRES   REMARKS
LITTLE ROCK    CLOUDY    30  18  60 E12       30.56S WCI  20
N LITTLE ROCK  CLOUDY    28  22  78 E8        30.56S WCI  20
JACKSONVILLE   CLOUDY    28  18  66 NE9       30.55S WCI  19
SEARCY         CLOUDY    28  20  71 NE13      30.58S WCI  17
HOT SPRINGS    CLOUDY    28  17  63 E10       30.50F WCI  19
RUSSELLVILLE   CLOUDY    26  18  71 E7        30.52F WCI  18
CLINTON        PTSUNNY   27  18  69 NE5       30.57S WCI  21
$$

ARZ036-281700-
EAST ARKANSAS

CITY           SKY/WX    TMP DP  RH WIND       PRES   REMARKS
WEST MEMPHIS   CLOUDY    31  17  56 NE13      30.55F WCI  21
$$

ARZ050-053-066-070-073-281700-
SOUTHWEST ARKANSAS

CITY           SKY/WX    TMP DP  RH WIND       PRES   REMARKS
ARKADELPHIA    PTSUNNY   31  21  66 NE10      30.51F WCI  22
CAMDEN         PTSUNNY   34  19  55 MISG      30.51F
TEXARKANA      CLOUDY    30  21  69 E8        30.47S WCI  22
EL DORADO      CLOUDY    33  22  63 NE9       30.48F WCI  25
DE QUEEN       CLOUDY    29  20  69 E10       30.47R WCI  20
$$

ARZ056-057-069-281700-
SOUTHEAST ARKANSAS

CITY           SKY/WX    TMP DP  RH WIND       PRES   REMARKS
PINE BLUFF     CLOUDY    30  21  69 NE9       30.54F WCI  22
STUTTGART      CLOUDY    30  19  64 NE14      30.55F WCI  20
MONTICELLO     PTSUNNY   35  22  58 NE10      30.51S WCI  27

$$




USA.gov is the U.S. government's official web portal to all federal, state and local government web resources and services.